Regional Weather Roundup
Issued by NWS

Home | Current Version | Previous Version | Graphics & Text | Print | Product List | Glossary On
Versions: 1 2 3 4 5 6 7 8 9 10 11 12 13 14 15 16 17 18 19 20 21 22 23 24 25 26 27 28 29 30 31 32 33 34 35 36 37 38 39 40 41 42 43 44 45 46 47 48 49 50
000
ASUS43 KLMK 171002
RWRKY
KENTUCKY REGIONAL WEATHER ROUNDUP
NATIONAL WEATHER SERVICE LOUISVILLE KY
500 AM EST FRI NOV 17 2017

NOTE "FAIR" INDICATES FEW OR NO CLOUDS BELOW 12,000 FEET
WITH NO SIGNIFICANT WEATHER AND/OR OBSTRUCTIONS TO VISIBILITY.

KYZ001>023-026-027-061>063-070>075-171100-
WESTERN AND SOUTH CENTRAL KENTUCKY

CITY           SKY/WX    TMP DP  RH WIND       PRES   REMARKS
PADUCAH        CLOUDY    32  29  88 CALM      30.17S FOG
HENDERSON      CLOUDY    27  26  96 E3        30.21S FOG
OWENSBORO      CLOUDY    33  32  96 SE6       30.22R FOG     WCI  28
HOPKINSVILLE   CLEAR     31  31  99 E5        30.17F WCI  27
BOWLING GREEN  CLOUDY    37  36  96 E7        30.21S FOG     WCI  32
GLASGOW        NOT AVBL
$$

KYZ024-025-028>034-038-045-046-053-171100-
NORTH CENTRAL KENTUCKY

CITY           SKY/WX    TMP DP  RH WIND       PRES   REMARKS
LOUISVILLE/SDF CLOUDY    36  30  79 E10       30.23S WCI  28
LOUISVILLE/LOU CLOUDY    35  31  85 E8        30.24S WCI  29
FORT KNOX      CLOUDY    34  30  88 SE9       30.20R WCI  26
$$

KYZ035>037-039>044-047>052-055>060-089>105-171100-
NORTHEAST KENTUCKY

CITY           SKY/WX    TMP DP  RH WIND       PRES   REMARKS
LEXINGTON      CLOUDY    34  29  82 E12       30.24R WCI  25
COVINGTON      CLOUDY    36  31  82 SE10      30.24S WCI  28
FRANKFORT      CLOUDY    35  28  75 E6        30.24R WCI  30
$$

KYZ054-064>069-076>088-106>120-171100-
SOUTHEAST KENTUCKY

CITY           SKY/WX    TMP DP  RH WIND       PRES   REMARKS
JACKSON        CLOUDY    33  28  81 VRB5      30.23S WCI  29
LONDON         CLOUDY    33  29  85 E3        30.22S
SOMERSET       CLOUDY    32  32 100 E3        30.24S
MIDDLESBORO    CLOUDY    38  37  96 CALM      30.22S
MONTICELLO     CLOUDY    35  34  96 N6        30.23S FOG     WCI  30
$$




USA.gov is the U.S. government's official web portal to all federal, state and local government web resources and services.